Mars Hill, North Carolina, United States (28754)
Lat: 35.83N, Lon: 82.55W
Wx Zone: NCZ048
Local Info
Past Weather Observations for Today

NOTE: This archive is for the closest National Weather Service station to Mars Hill. Information may differ from the station used for current weather conditions.

Click here for Long-term Archive

Time Weather Temperature Dewpoint Humidity Pressure Winds Precip Visibility
17:54
Clear
82°F / 28°C 70°F / 21°C 66% 30.06 in
(1018 mb)
Calm - 10SM
16:54
Clear
84°F / 29°C 68°F / 20°C 58% 30.06 in
(1018 mb)
Calm - 10SM
15:54
Partly Cloudy
84°F / 29°C 70°F / 21°C 62% 30.06 in
(1018 mb)
Calm - 10SM
14:54
Overcast
84°F / 29°C 68°F / 20°C 58% 30.06 in
(1018 mb)
E 5.8 mph
(E 9 kph)
- 10SM
13:54
Clear
88°F / 31°C 64°F / 18°C 46% 30.09 in
(1019 mb)
Variable 6.9 mph
(Variable 11 kph)
- 10SM
12:54
Overcast
84°F / 29°C 64°F / 18°C 51% 30.09 in
(1019 mb)
Variable 4.6 mph
(Variable 7 kph)
- 10SM
11:54
Clear
86°F / 30°C 64°F / 18°C 49% 30.09 in
(1019 mb)
Variable 3.5 mph
(Variable 6 kph)
- 10SM
10:54
Clear
84°F / 29°C 70°F / 21°C 62% 30.12 in
(1020 mb)
NNW 6.9 mph
(NNW 11 kph)
- 10SM
09:54
Clear
82°F / 28°C 66°F / 19°C 58% 30.12 in
(1020 mb)
N 8.1 mph
(N 13 kph)
- 10SM
08:54
Clear
75°F / 24°C 66°F / 19°C 74% 30.12 in
(1020 mb)
N 6.9 mph
(N 11 kph)
- 10SM
07:54
Partly Cloudy
72°F / 22°C 66°F / 19°C 83% 30.12 in
(1020 mb)
NNW 6.9 mph
(NNW 11 kph)
- 9SM
07:38
Overcast
70°F / 21°C 66°F / 19°C 88% 30.12 in
(1020 mb)
NW 4.6 mph
(NW 7 kph)
- 8SM
07:15
Overcast
Fog And Mist
66°F / 19°C 64°F / 18°C 94% 30.12 in
(1020 mb)
Calm - 4SM
07:05
Overcast
Fog And Mist
66°F / 19°C 64°F / 18°C 94% 30.12 in
(1020 mb)
SSW 3.5 mph
(SSW 6 kph)
- 2SM
06:54
Overcast
Fog And Mist
66°F / 19°C 64°F / 18°C 94% 30.12 in
(1020 mb)
SW 3.5 mph
(SW 6 kph)
- 1 1/4SM
06:49
Overcast
Fog And Mist
66°F / 19°C 64°F / 18°C 94% 30.12 in
(1020 mb)
SSW 3.5 mph
(SSW 6 kph)
- 1 1/4SM
06:37
Overcast
Fog And Mist
66°F / 19°C 64°F / 18°C 94% 30.12 in
(1020 mb)
SSW 3.5 mph
(SSW 6 kph)
- 3/4SM
06:21
Overcast
Fog And Mist
66°F / 19°C 64°F / 18°C 94% 30.12 in
(1020 mb)
Calm - 1SM
06:12
Overcast
Fog And Mist
66°F / 19°C 64°F / 18°C 94% 30.12 in
(1020 mb)
NW 3.5 mph
(NW 6 kph)
- 1 3/4SM
06:00
Overcast
Fog And Mist
66°F / 19°C 64°F / 18°C 94% 30.12 in
(1020 mb)
Calm - 3SM
05:54
Overcast
Fog And Mist
66°F / 19°C 64°F / 18°C 94% 30.12 in
(1020 mb)
Calm - 1 3/4SM
05:21
Overcast
Fog And Mist
64°F / 18°C 63°F / 17°C 94% 30.12 in
(1020 mb)
NNW 4.6 mph
(NNW 7 kph)
- 1 3/4SM
04:54
Mostly Cloudy
66°F / 19°C 63°F / 17°C 88% 30.12 in
(1020 mb)
NNW 4.6 mph
(NNW 7 kph)
- 9SM
04:49
Mostly Cloudy
64°F / 18°C 63°F / 17°C 94% 30.12 in
(1020 mb)
NNW 5.8 mph
(NNW 9 kph)
- 10SM
03:54
Partly Cloudy
64°F / 18°C 63°F / 17°C 94% 30.12 in
(1020 mb)
Calm - 10SM
03:38
Partly Cloudy
64°F / 18°C 63°F / 17°C 94% 30.12 in
(1020 mb)
Calm - 9SM
02:54
Clear
64°F / 18°C 63°F / 17°C 94% 30.12 in
(1020 mb)
Calm - 10SM
01:54
Clear
66°F / 19°C 63°F / 17°C 88% 30.12 in
(1020 mb)
NW 3.5 mph
(NW 6 kph)
- 10SM
01:04
Partly Cloudy
66°F / 19°C 63°F / 17°C 88% 30.12 in
(1020 mb)
Calm - 10SM
00:54
Clear
66°F / 19°C 64°F / 18°C 94% 30.12 in
(1020 mb)
Calm - 10SM
Time Weather Temperature Dewpoint Humidity Pressure Winds Precip Visibility


Weather for websites

WeatherForYou.com, LLC is not responsible for any damages or problems caused by this service. Current weather conditions are obtained from the closest station including government and personal stations which may have varying degrees of accuracy. Weather forecasts are derived from the NOAA NDFD. Like all things, this site belongs to Jesus Christ... He just trusts us to maintain it. If you have any questions or comments email webmaster@weatherforyou.com

Copyright © 2016, WeatherForYou.com LLC. All rights reserved.